Location: Houhaj�rvi
(61.2667°N, 23.0167°E)
Time: 16:36:54
(UTC+00:00)

Cosmos 1606 - Pass Details

Date: 13 December 2019
Orbit: 505 x 528 km, 82.5° (Epoch: 22 January)

Event Time Altitude Azimuth Distance (km) Brightness Sun altitude
Rises 14:39:45 0° 204° (SSW) 2,619 7.3 -8.9°
Reaches altitude 10° 14:41:53 10° 208° (SSW) 1,741 6.4 -9.1°
Maximum altitude 14:45:40 60° 289° (WNW) 600 3.2 -9.5°
Drops below altitude 10° 14:49:31 10° 10° (N) 1,768 5.0 -9.9°
Enters shadow 14:50:36 - 12° (NNE) 2,213 5.5 -10.0°
